SL-14 DEB, 45293

Orbit data source: Space-Track

SL-14 DEB, 45293 is space debris in LEO originally from a launch on Thu, 15 Aug 1991 UTC launched from the Plesetsk Missile And Space Complex (PKMTR). Debris objects in space refer to the collection of defunct objects orbiting the Earth. Examples of debris include non-operational satellites, rocket bodies, and fragments generated from explosions, collisions, or faulty payload assembly.

Loading next visibility...
Identifier
45293, 1991-056AF
Orbit
LEO
Last TLE update
23 hours ago
Origin
Manufacturer
Unknown
Mission
Spacecraft
Bus & Motor
Unknown
Mass
Unknown
Launch date (UTC)
1991-08-15 (34 years ago)
Launch vehicle
Unknown
Launch site
Plesetsk Missile And Space Complex (PKMTR)
Object type
Payload
Rocket body
Debris
Shape & HBR
Unknown
Radar Cross Section
Small (<0.1 m²)

Expand to show TLE details & history

TLE from 23 hours ago
0 SL-14 DEB
1 45293U 91056AF  25181.43346653  .00017943  00000-0  72826-2 0  9996
2 45293  82.5224 243.0132 0162181  97.7414 264.2215 14.20629258268876
Epoch: 2025-06-30T10:24Z
TLE epoch observation values (Epoch: 2025-06-30T10:24:11.508Z)
Latitude
-0.00003°
Longitude
168.22191°
Altitude
839.811 km
Speed
7.426 km/s
True Right ascension
16h 12m 03s
True Declination
0° 00' 00"
Sunlit
Object was in full shadow at epoch
Visualization orbit readout
Latitude
-28.6198°
Longitude
-8.50207°
Altitude
879.24 km
Speed
7.388 km/s
Apparent Right ascension
06h 21m 35s
Apparent Declination
-38° 48' 23"
Sunlit
Object is in daylight
Visualization observer readout
Local Sidereal Time
20:58:41
Azimuth
100.741° ESE
Elevation
-59.861°
Doppler factor
1
Orbital elements
Apogee altitude
937.073 km
Perigee altitude
703.582 km
Semi-major axis
7,198.464 km
Eccentricity
0.01622
Inclination
82.5224°
RAAN
243.0132°
Arg. of periapsis
97.7414°
True anomaly
Unknown
Mean anomaly
264.2215°
Eccentric anomaly
Unknown
Mean motion
3.55372 °/min
Orbital period
101.3 mins
BSTAR
0.0072826
Loading maneuver chart data...
Loading SW <> Apogee altitude chart data...
Loading historical data...
Loading historical data...
Loading historical data...
Loading historical data...
Loading historical data...
Loading historical data...
Loading historical data...

SL-14 DEB Visibility forecast

Observer location: undefined°, undefined°

Span
Click to sort rows by Start time (UTC) header in descending order
Start Az.
Max El. time (UTC)
Max El. Az.
Max El.
End time (UTC)
End Az.
9 mins2025-07-01 15:42:24.884Z1.176° NNE2025-07-01 15:46:24.884Z65.422° ENE41.127°2025-07-01 15:51:24.884Z161.059° S
8 mins2025-07-02 04:47:24.884Z187.401° SSW2025-07-02 04:51:24.884Z359.718° N43.808°2025-07-02 04:55:24.884Z6.969° NNE
|